Year,Month,Day,Hour,Minute,Value (Times are PST for temperature in C)
2016,03,29,00,00,4.80
2016,03,29,00,01,4.80
2016,03,29,00,02,4.80
2016,03,29,00,03,4.80
2016,03,29,00,04,4.70
2016,03,29,00,05,4.70
2016,03,29,00,06,4.70
2016,03,29,00,07,4.70
2016,03,29,00,08,4.70
2016,03,29,00,09,4.70
2016,03,29,00,10,4.60
2016,03,29,00,11,4.60
2016,03,29,00,12,4.60
2016,03,29,00,13,4.50
2016,03,29,00,14,4.50
2016,03,29,00,15,4.50
2016,03,29,00,16,4.40
2016,03,29,00,17,4.40
2016,03,29,00,18,4.40
2016,03,29,00,19,4.40
2016,03,29,00,20,4.40
2016,03,29,00,21,4.30
2016,03,29,00,22,4.30
2016,03,29,00,23,4.30
2016,03,29,00,24,4.30
2016,03,29,00,25,4.30
2016,03,29,00,26,4.20
2016,03,29,00,27,4.20
2016,03,29,00,28,4.20
2016,03,29,00,29,4.20
2016,03,29,00,30,4.20
2016,03,29,00,31,4.10
2016,03,29,00,32,4.10
2016,03,29,00,33,4.10
2016,03,29,00,34,4.10
2016,03,29,00,35,4.00
2016,03,29,00,36,4.00
2016,03,29,00,37,4.00
2016,03,29,00,38,4.00
2016,03,29,00,39,3.90
2016,03,29,00,40,3.90
2016,03,29,00,41,3.90
2016,03,29,00,42,3.90
2016,03,29,00,43,3.80
2016,03,29,00,44,3.80
2016,03,29,00,45,3.80
2016,03,29,00,46,3.80
2016,03,29,00,47,3.80
2016,03,29,00,48,3.80
2016,03,29,00,49,3.70
2016,03,29,00,50,3.70
2016,03,29,00,51,3.70
2016,03,29,00,52,3.70
2016,03,29,00,53,3.70
2016,03,29,00,54,3.70
2016,03,29,00,55,3.60
2016,03,29,00,56,3.60
2016,03,29,00,57,3.60
2016,03,29,00,58,3.60
2016,03,29,00,59,3.60
2016,03,29,01,00,3.50
2016,03,29,01,01,3.50
2016,03,29,01,02,3.50
2016,03,29,01,03,3.40
2016,03,29,01,04,3.40
2016,03,29,01,05,3.40
2016,03,29,01,06,3.40
2016,03,29,01,07,3.30
2016,03,29,01,08,3.30
2016,03,29,01,09,3.30
2016,03,29,01,10,3.30
2016,03,29,01,11,3.30
2016,03,29,01,12,3.30
2016,03,29,01,13,3.30
2016,03,29,01,14,3.30
2016,03,29,01,15,3.30
2016,03,29,01,16,3.30
2016,03,29,01,17,3.30
2016,03,29,01,18,3.30
2016,03,29,01,19,3.30
2016,03,29,01,20,3.30
2016,03,29,01,21,3.20
2016,03,29,01,22,3.20
2016,03,29,01,23,3.20
2016,03,29,01,24,3.20
2016,03,29,01,25,3.20
2016,03,29,01,26,3.20
2016,03,29,01,27,3.10
2016,03,29,01,28,3.10
2016,03,29,01,29,3.10
2016,03,29,01,30,3.10
2016,03,29,01,31,3.10
2016,03,29,01,32,3.10
2016,03,29,01,33,3.10
2016,03,29,01,34,3.10
2016,03,29,01,35,3.10
2016,03,29,01,36,3.10
2016,03,29,01,37,3.10
2016,03,29,01,38,3.10
2016,03,29,01,39,3.10
2016,03,29,01,40,3.10
2016,03,29,01,41,3.10
2016,03,29,01,42,3.00
2016,03,29,01,43,3.00
2016,03,29,01,44,3.00
2016,03,29,01,45,3.00
2016,03,29,01,46,3.00
2016,03,29,01,47,2.90
2016,03,29,01,48,2.90
2016,03,29,01,49,2.90
2016,03,29,01,50,2.90
2016,03,29,01,51,2.90
2016,03,29,01,52,2.90
2016,03,29,01,53,2.90
2016,03,29,01,54,2.90
2016,03,29,01,55,2.90
2016,03,29,01,56,2.90
2016,03,29,01,57,3.00
2016,03,29,01,58,3.00
2016,03,29,01,59,3.00
2016,03,29,02,00,3.00
2016,03,29,02,01,3.00
2016,03,29,02,02,3.10
2016,03,29,02,03,3.10
2016,03,29,02,04,3.10
2016,03,29,02,05,3.10
2016,03,29,02,06,3.10
2016,03,29,02,07,3.10
2016,03,29,02,08,3.10
2016,03,29,02,09,3.10
2016,03,29,02,10,3.10
2016,03,29,02,11,3.10
2016,03,29,02,12,3.10
2016,03,29,02,13,3.10
2016,03,29,02,14,3.10
2016,03,29,02,15,3.10
2016,03,29,02,16,3.10
2016,03,29,02,17,3.10
2016,03,29,02,18,3.10
2016,03,29,02,19,3.10
2016,03,29,02,20,3.10
2016,03,29,02,21,3.10
2016,03,29,02,22,3.10
2016,03,29,02,23,3.10
2016,03,29,02,24,3.10
2016,03,29,02,25,3.10
2016,03,29,02,26,3.10
2016,03,29,02,27,3.20
2016,03,29,02,28,3.20
2016,03,29,02,29,3.20
2016,03,29,02,30,3.20
2016,03,29,02,31,3.20
2016,03,29,02,32,3.20
2016,03,29,02,33,3.20
2016,03,29,02,34,3.20
2016,03,29,02,35,3.20
2016,03,29,02,36,3.30
2016,03,29,02,37,3.30
2016,03,29,02,38,3.30
2016,03,29,02,39,3.30
2016,03,29,02,40,3.30
2016,03,29,02,41,3.30
2016,03,29,02,42,3.30
2016,03,29,02,43,3.40
2016,03,29,02,44,3.40
2016,03,29,02,45,3.40
2016,03,29,02,46,3.40
2016,03,29,02,47,3.40
2016,03,29,02,48,3.40
2016,03,29,02,49,3.40
2016,03,29,02,50,3.40
2016,03,29,02,51,3.40
2016,03,29,02,52,3.40
2016,03,29,02,53,3.30
2016,03,29,02,54,3.20
2016,03,29,02,55,3.00
2016,03,29,02,56,2.90
2016,03,29,02,57,2.80
2016,03,29,02,58,2.70
2016,03,29,02,59,2.60
2016,03,29,03,00,2.60
2016,03,29,03,01,2.50
2016,03,29,03,02,2.50
2016,03,29,03,03,2.40
2016,03,29,03,04,2.40
2016,03,29,03,05,2.30
2016,03,29,03,06,2.30
2016,03,29,03,07,2.30
2016,03,29,03,08,2.30
2016,03,29,03,09,2.20
2016,03,29,03,10,2.20
2016,03,29,03,11,2.20
2016,03,29,03,12,2.30
2016,03,29,03,13,2.40
2016,03,29,03,14,2.50
2016,03,29,03,15,2.60
2016,03,29,03,16,2.70
2016,03,29,03,17,2.80
2016,03,29,03,18,3.00
2016,03,29,03,19,3.10
2016,03,29,03,20,3.10
2016,03,29,03,21,3.20
2016,03,29,03,22,3.20
2016,03,29,03,23,3.30
2016,03,29,03,24,3.30
2016,03,29,03,25,3.30
2016,03,29,03,26,3.40
2016,03,29,03,27,3.40
2016,03,29,03,28,3.50
2016,03,29,03,29,3.50
2016,03,29,03,30,3.60
2016,03,29,03,31,3.70
2016,03,29,03,32,3.90
2016,03,29,03,33,4.00
2016,03,29,03,34,4.10
2016,03,29,03,35,4.20
2016,03,29,03,36,4.30
2016,03,29,03,37,4.50
2016,03,29,03,38,4.60
2016,03,29,03,39,4.70
2016,03,29,03,40,4.70
2016,03,29,03,41,4.90
2016,03,29,03,42,5.00
2016,03,29,03,43,5.10
2016,03,29,03,44,5.20
2016,03,29,03,45,5.30
2016,03,29,03,46,5.40
2016,03,29,03,47,5.50
2016,03,29,03,48,5.60
2016,03,29,03,49,5.70
2016,03,29,03,50,5.80
2016,03,29,03,51,5.90
2016,03,29,03,52,6.00
2016,03,29,03,53,6.10
2016,03,29,03,54,6.10
2016,03,29,03,55,6.20
2016,03,29,03,56,6.30
2016,03,29,03,57,6.40
2016,03,29,03,58,6.50
2016,03,29,03,59,6.60
2016,03,29,04,00,6.60
2016,03,29,04,01,6.70
2016,03,29,04,02,6.70
2016,03,29,04,03,6.80
2016,03,29,04,04,6.80
2016,03,29,04,05,6.80
2016,03,29,04,06,6.80
2016,03,29,04,07,6.80
2016,03,29,04,08,6.80
2016,03,29,04,09,6.80
2016,03,29,04,10,6.80
2016,03,29,04,11,6.80
2016,03,29,04,12,6.90
2016,03,29,04,13,7.00
2016,03,29,04,14,7.10
2016,03,29,04,15,7.20
2016,03,29,04,16,7.20
2016,03,29,04,17,7.30
2016,03,29,04,18,7.40
2016,03,29,04,19,7.40
2016,03,29,04,20,7.50
2016,03,29,04,21,7.50
2016,03,29,04,22,7.60
2016,03,29,04,23,7.60
2016,03,29,04,24,7.70
2016,03,29,04,25,7.70
2016,03,29,04,26,7.70
2016,03,29,04,27,7.80
2016,03,29,04,28,7.80
2016,03,29,04,29,7.80
2016,03,29,04,30,7.80
2016,03,29,04,31,7.90
2016,03,29,04,32,7.90
2016,03,29,04,33,7.90
2016,03,29,04,34,7.90
2016,03,29,04,35,7.90
2016,03,29,04,36,8.00
2016,03,29,04,37,8.00
2016,03,29,04,38,8.00
2016,03,29,04,39,8.00
2016,03,29,04,40,8.00
2016,03,29,04,41,8.10
2016,03,29,04,42,8.10
2016,03,29,04,43,8.10
2016,03,29,04,44,8.10
2016,03,29,04,45,8.10
2016,03,29,04,46,8.20
2016,03,29,04,47,8.20
2016,03,29,04,48,8.20
2016,03,29,04,49,8.20
2016,03,29,04,50,8.20
2016,03,29,04,51,8.20
2016,03,29,04,52,8.20
2016,03,29,04,53,8.20
2016,03,29,04,54,8.20
2016,03,29,04,55,8.20
2016,03,29,04,56,8.30
2016,03,29,04,57,8.30
2016,03,29,04,58,8.30
2016,03,29,04,59,8.30
2016,03,29,05,00,8.30
2016,03,29,05,01,8.30
2016,03,29,05,02,8.30
2016,03,29,05,03,8.30
2016,03,29,05,04,8.30
2016,03,29,05,05,8.30
2016,03,29,05,06,8.30
2016,03,29,05,07,8.30
2016,03,29,05,08,8.30
2016,03,29,05,09,8.40
2016,03,29,05,10,8.30
2016,03,29,05,11,8.30
2016,03,29,05,12,8.30
2016,03,29,05,13,8.20
2016,03,29,05,14,8.20
2016,03,29,05,15,8.10
2016,03,29,05,16,8.00
2016,03,29,05,17,7.90
2016,03,29,05,18,7.80
2016,03,29,05,19,7.80
2016,03,29,05,20,7.70
2016,03,29,05,21,7.70
2016,03,29,05,22,7.60
2016,03,29,05,23,7.60
2016,03,29,05,24,7.60
2016,03,29,05,25,7.60
2016,03,29,05,26,7.60
2016,03,29,05,27,7.50
2016,03,29,05,28,7.50
2016,03,29,05,29,7.50
2016,03,29,05,30,7.50
2016,03,29,05,31,7.40
2016,03,29,05,32,7.40
2016,03,29,05,33,7.30
2016,03,29,05,34,7.20
2016,03,29,05,35,7.20
2016,03,29,05,36,7.20
2016,03,29,05,37,7.10
2016,03,29,05,38,7.00
2016,03,29,05,39,6.80
2016,03,29,05,40,6.70
2016,03,29,05,41,6.50
2016,03,29,05,42,6.30
2016,03,29,05,43,6.10
2016,03,29,05,44,5.90
2016,03,29,05,45,5.80
2016,03,29,05,46,5.60
2016,03,29,05,47,5.50
2016,03,29,05,48,5.40
2016,03,29,05,49,5.40
2016,03,29,05,50,5.30
2016,03,29,05,51,5.30
2016,03,29,05,52,5.30
2016,03,29,05,53,5.30
2016,03,29,05,54,5.30
2016,03,29,05,55,5.30
2016,03,29,05,56,5.40
2016,03,29,05,57,5.50
2016,03,29,05,58,5.50
2016,03,29,05,59,5.60
2016,03,29,06,00,5.70
2016,03,29,06,01,5.70
2016,03,29,06,02,5.80
2016,03,29,06,03,5.90
2016,03,29,06,04,5.90
2016,03,29,06,05,6.00
2016,03,29,06,06,6.10
2016,03,29,06,07,6.20
2016,03,29,06,08,6.20
2016,03,29,06,09,6.30
2016,03,29,06,10,6.40
2016,03,29,06,11,6.40
2016,03,29,06,12,6.50
2016,03,29,06,13,6.60
2016,03,29,06,14,6.60
2016,03,29,06,15,6.70
2016,03,29,06,16,6.70
2016,03,29,06,17,6.70
2016,03,29,06,18,6.70
2016,03,29,06,19,6.70
2016,03,29,06,20,6.70
2016,03,29,06,21,6.60
2016,03,29,06,22,6.50
2016,03,29,06,23,6.50
2016,03,29,06,24,6.40
2016,03,29,06,25,6.30
2016,03,29,06,26,6.20
2016,03,29,06,27,6.10
2016,03,29,06,28,6.00
2016,03,29,06,29,5.90
2016,03,29,06,30,5.80
2016,03,29,06,31,5.70
2016,03,29,06,32,5.70
2016,03,29,06,33,5.70
2016,03,29,06,34,5.70
2016,03,29,06,35,5.70
2016,03,29,06,36,5.70
2016,03,29,06,37,5.60
2016,03,29,06,38,5.60
2016,03,29,06,39,5.60
2016,03,29,06,40,5.60
2016,03,29,06,41,5.60
2016,03,29,06,42,5.70
2016,03,29,06,43,5.70
2016,03,29,06,44,5.70
2016,03,29,06,45,5.70
2016,03,29,06,46,5.70
2016,03,29,06,47,5.80
2016,03,29,06,48,5.80
2016,03,29,06,49,5.90
2016,03,29,06,50,5.90
2016,03,29,06,51,6.00
2016,03,29,06,52,6.00
2016,03,29,06,53,6.10
2016,03,29,06,54,6.20
2016,03,29,06,55,6.30
2016,03,29,06,56,6.30
2016,03,29,06,57,6.40
2016,03,29,06,58,6.50
2016,03,29,06,59,6.70
2016,03,29,07,00,6.80
2016,03,29,07,01,7.00
2016,03,29,07,02,7.10
2016,03,29,07,03,7.20
2016,03,29,07,04,7.20
2016,03,29,07,05,7.30
2016,03,29,07,06,7.40
2016,03,29,07,07,7.50
2016,03,29,07,08,7.60
2016,03,29,07,09,7.60
2016,03,29,07,10,7.60
2016,03,29,07,11,7.70
2016,03,29,07,12,7.70
2016,03,29,07,13,7.70
2016,03,29,07,14,7.70
2016,03,29,07,15,7.70
2016,03,29,07,16,7.70
2016,03,29,07,17,7.70
2016,03,29,07,18,7.70
2016,03,29,07,19,7.80
2016,03,29,07,20,7.80
2016,03,29,07,21,7.80
2016,03,29,07,22,7.90
2016,03,29,07,23,7.90
2016,03,29,07,24,7.90
2016,03,29,07,25,7.80
2016,03,29,07,26,7.80
2016,03,29,07,27,7.80
2016,03,29,07,28,7.70
2016,03,29,07,29,7.70
2016,03,29,07,30,7.60
2016,03,29,07,31,7.50
2016,03,29,07,32,7.50
2016,03,29,07,33,7.50
2016,03,29,07,34,7.50
2016,03,29,07,35,7.50
2016,03,29,07,36,7.60
2016,03,29,07,37,7.60
2016,03,29,07,38,7.70
2016,03,29,07,39,7.70
2016,03,29,07,40,7.80
2016,03,29,07,41,7.80
2016,03,29,07,42,7.90
2016,03,29,07,43,7.90
2016,03,29,07,44,7.90
2016,03,29,07,45,8.00
2016,03,29,07,46,8.00
2016,03,29,07,47,8.10
2016,03,29,07,48,8.10
2016,03,29,07,49,8.10
2016,03,29,07,50,8.10
2016,03,29,07,51,8.10
2016,03,29,07,52,8.20
2016,03,29,07,53,8.20
2016,03,29,07,54,8.20
2016,03,29,07,55,8.20
2016,03,29,07,56,8.20
2016,03,29,07,57,8.20
2016,03,29,07,58,8.20
2016,03,29,07,59,8.20
2016,03,29,08,00,8.20
2016,03,29,08,01,8.20
2016,03,29,08,02,8.20
2016,03,29,08,03,8.30
2016,03,29,08,04,8.30
2016,03,29,08,05,8.30
2016,03,29,08,06,8.30
2016,03,29,08,07,8.30
2016,03,29,08,08,8.30
2016,03,29,08,09,8.30
2016,03,29,08,10,8.30
2016,03,29,08,11,8.30
2016,03,29,08,12,8.30
2016,03,29,08,13,8.30
2016,03,29,08,14,8.30
2016,03,29,08,15,8.40
2016,03,29,08,16,8.40
2016,03,29,08,17,8.40
2016,03,29,08,18,8.50
2016,03,29,08,19,8.50
2016,03,29,08,20,8.60
2016,03,29,08,21,8.60
2016,03,29,08,22,8.60
2016,03,29,08,23,8.70
2016,03,29,08,24,8.70
2016,03,29,08,25,8.70
2016,03,29,08,26,8.70
2016,03,29,08,27,8.80
2016,03,29,08,28,8.80
2016,03,29,08,29,8.90
2016,03,29,08,30,8.90
2016,03,29,08,31,8.90
2016,03,29,08,32,9.00
2016,03,29,08,33,9.00
2016,03,29,08,34,9.10
2016,03,29,08,35,9.10
2016,03,29,08,36,9.20
2016,03,29,08,37,9.20
2016,03,29,08,38,9.20
2016,03,29,08,39,9.20
2016,03,29,08,40,9.30
2016,03,29,08,41,9.30
2016,03,29,08,42,9.30
2016,03,29,08,43,9.40
2016,03,29,08,44,9.40
2016,03,29,08,45,9.40
2016,03,29,08,46,9.60
2016,03,29,08,47,9.60
2016,03,29,08,48,9.60
2016,03,29,08,49,9.70
2016,03,29,08,50,9.60
2016,03,29,08,51,9.70
2016,03,29,08,52,9.70
2016,03,29,08,53,9.80
2016,03,29,08,54,9.90
2016,03,29,08,55,9.90
2016,03,29,08,56,10.00
2016,03,29,08,57,10.00
2016,03,29,08,58,10.10
2016,03,29,08,59,10.10
2016,03,29,09,00,10.20
2016,03,29,09,01,10.20
2016,03,29,09,02,10.20
2016,03,29,09,03,10.20
2016,03,29,09,04,10.30
2016,03,29,09,05,10.30
2016,03,29,09,06,10.30
2016,03,29,09,07,10.40
2016,03,29,09,08,10.40
2016,03,29,09,09,10.50
2016,03,29,09,10,10.50
2016,03,29,09,11,10.50
2016,03,29,09,12,10.60
2016,03,29,09,13,10.60
2016,03,29,09,14,10.60
2016,03,29,09,15,10.60
2016,03,29,09,16,10.70
2016,03,29,09,17,10.70
2016,03,29,09,18,10.60
2016,03,29,09,19,10.70
2016,03,29,09,20,10.70
2016,03,29,09,21,10.70
2016,03,29,09,22,10.70
2016,03,29,09,23,10.80
2016,03,29,09,24,10.80
2016,03,29,09,25,10.80
2016,03,29,09,26,10.80
2016,03,29,09,27,10.80
2016,03,29,09,28,10.80
2016,03,29,09,29,10.80
2016,03,29,09,30,10.80
2016,03,29,09,31,10.80
2016,03,29,09,32,10.80
2016,03,29,09,33,10.80
2016,03,29,09,34,10.80
2016,03,29,09,35,10.90
2016,03,29,09,36,10.90
2016,03,29,09,37,10.90
2016,03,29,09,38,11.00
2016,03,29,09,39,11.00
2016,03,29,09,40,11.00
2016,03,29,09,41,11.00
2016,03,29,09,42,11.10
2016,03,29,09,43,11.10
2016,03,29,09,44,11.20
2016,03,29,09,45,11.20
2016,03,29,09,46,11.20
2016,03,29,09,47,11.30
2016,03,29,09,48,11.30
2016,03,29,09,49,11.30
2016,03,29,09,50,11.40
2016,03,29,09,51,11.40
2016,03,29,09,52,11.40
2016,03,29,09,53,11.40
2016,03,29,09,54,11.40
2016,03,29,09,55,11.40
2016,03,29,09,56,11.30
2016,03,29,09,57,11.30
2016,03,29,09,58,11.40
2016,03,29,09,59,11.40
2016,03,29,10,00,11.40
2016,03,29,10,01,11.40
2016,03,29,10,02,11.50
2016,03,29,10,03,11.50
2016,03,29,10,04,11.40
2016,03,29,10,05,11.50
2016,03,29,10,06,11.50
2016,03,29,10,07,11.50
2016,03,29,10,08,11.50
2016,03,29,10,09,11.50
2016,03,29,10,10,11.50
2016,03,29,10,11,11.50
2016,03,29,10,12,11.60
2016,03,29,10,13,11.60
2016,03,29,10,14,11.60
2016,03,29,10,15,11.60
2016,03,29,10,16,11.60
2016,03,29,10,17,11.70
2016,03,29,10,18,11.70
2016,03,29,10,19,11.80
2016,03,29,10,20,11.80
2016,03,29,10,21,11.90
2016,03,29,10,22,11.90
2016,03,29,10,23,11.90
2016,03,29,10,24,11.90
2016,03,29,10,25,12.00
2016,03,29,10,26,12.00
2016,03,29,10,27,12.00
2016,03,29,10,28,12.10
2016,03,29,10,29,12.10
2016,03,29,10,30,12.20
2016,03,29,10,31,12.20
2016,03,29,10,32,12.20
2016,03,29,10,33,12.20
2016,03,29,10,34,12.20
2016,03,29,10,35,12.20
2016,03,29,10,36,12.30
2016,03,29,10,37,12.30
2016,03,29,10,38,12.30
2016,03,29,10,39,12.30
2016,03,29,10,40,12.30
2016,03,29,10,41,12.40
2016,03,29,10,42,12.40
2016,03,29,10,43,12.40
2016,03,29,10,44,12.40
2016,03,29,10,45,12.50
2016,03,29,10,46,12.50
2016,03,29,10,47,12.50
2016,03,29,10,48,12.50
2016,03,29,10,49,12.50
2016,03,29,10,50,12.50
2016,03,29,10,51,12.60
2016,03,29,10,52,12.60
2016,03,29,10,53,12.70
2016,03,29,10,54,12.70
2016,03,29,10,55,12.80
2016,03,29,10,56,12.80
2016,03,29,10,57,12.80
2016,03,29,10,58,12.80
2016,03,29,10,59,12.80
2016,03,29,11,00,12.90
2016,03,29,11,01,12.90
2016,03,29,11,02,12.90
2016,03,29,11,03,12.90
2016,03,29,11,04,12.90
2016,03,29,11,05,12.90
2016,03,29,11,06,12.90
2016,03,29,11,07,13.00
2016,03,29,11,08,13.00
2016,03,29,11,09,13.10
2016,03,29,11,10,13.10
2016,03,29,11,11,13.10
2016,03,29,11,12,13.10
2016,03,29,11,13,13.20
2016,03,29,11,14,13.20
2016,03,29,11,15,13.30
2016,03,29,11,16,13.30
2016,03,29,11,17,13.40
2016,03,29,11,18,13.40
2016,03,29,11,19,13.50
2016,03,29,11,20,13.50
2016,03,29,11,21,13.30
2016,03,29,11,22,13.20
2016,03,29,11,23,13.10
2016,03,29,11,24,13.00
2016,03,29,11,25,12.90
2016,03,29,11,26,12.90
2016,03,29,11,27,12.90
2016,03,29,11,28,13.00
2016,03,29,11,29,13.00
2016,03,29,11,30,13.10
2016,03,29,11,31,13.10
2016,03,29,11,32,13.10
2016,03,29,11,33,13.10
2016,03,29,11,34,13.10
2016,03,29,11,35,13.10
2016,03,29,11,36,13.10
2016,03,29,11,37,13.20
2016,03,29,11,38,13.20
2016,03,29,11,39,13.20
2016,03,29,11,40,13.20
2016,03,29,11,41,13.10
2016,03,29,11,42,13.10
2016,03,29,11,43,13.10
2016,03,29,11,44,13.10
2016,03,29,11,45,13.20
2016,03,29,11,46,13.20
2016,03,29,11,47,13.20
2016,03,29,11,48,13.20
2016,03,29,11,49,13.20
2016,03,29,11,50,13.20
2016,03,29,11,51,13.30
2016,03,29,11,52,13.20
2016,03,29,11,53,13.20
2016,03,29,11,54,13.20
2016,03,29,11,55,13.20
2016,03,29,11,56,13.20
2016,03,29,11,57,13.20
2016,03,29,11,58,13.20
2016,03,29,11,59,13.30
2016,03,29,12,00,13.30
2016,03,29,12,01,13.40
2016,03,29,12,02,13.40
2016,03,29,12,03,13.40
2016,03,29,12,04,13.50
2016,03,29,12,05,13.50
2016,03,29,12,06,13.60
2016,03,29,12,07,13.70
2016,03,29,12,08,13.70
2016,03,29,12,09,13.60
2016,03,29,12,10,13.60
2016,03,29,12,11,13.50
2016,03,29,12,12,13.50
2016,03,29,12,13,13.40
2016,03,29,12,14,13.40
2016,03,29,12,15,13.50
2016,03,29,12,16,13.60
2016,03,29,12,17,13.70
2016,03,29,12,18,13.80
2016,03,29,12,19,13.90
2016,03,29,12,20,13.90
2016,03,29,12,21,14.00
2016,03,29,12,22,13.90
2016,03,29,12,23,14.00
2016,03,29,12,24,14.10
2016,03,29,12,25,14.10
2016,03,29,12,26,14.00
2016,03,29,12,27,14.00
2016,03,29,12,28,14.00
2016,03,29,12,29,13.90
2016,03,29,12,30,14.00
2016,03,29,12,31,14.10
2016,03,29,12,32,14.20
2016,03,29,12,33,14.30
2016,03,29,12,34,14.40
2016,03,29,12,35,14.50
2016,03,29,12,36,14.50
2016,03,29,12,37,14.70
2016,03,29,12,38,14.80
2016,03,29,12,39,14.80
2016,03,29,12,40,14.80
2016,03,29,12,41,14.80
2016,03,29,12,42,14.90
2016,03,29,12,43,14.90
2016,03,29,12,44,15.00
2016,03,29,12,45,15.00
2016,03,29,12,46,14.90
2016,03,29,12,47,14.90
2016,03,29,12,48,14.90
2016,03,29,12,49,14.90
2016,03,29,12,50,15.00
2016,03,29,12,51,15.00
2016,03,29,12,52,15.00
2016,03,29,12,53,15.00
2016,03,29,12,54,15.00
2016,03,29,12,55,15.00
2016,03,29,12,56,15.00
2016,03,29,12,57,14.90
2016,03,29,12,58,14.80
2016,03,29,12,59,14.90
2016,03,29,13,00,15.00
2016,03,29,13,01,15.00
2016,03,29,13,02,15.00
2016,03,29,13,03,15.00
2016,03,29,13,04,15.00
2016,03,29,13,05,15.00
2016,03,29,13,06,15.10
2016,03,29,13,07,15.20
2016,03,29,13,08,15.30
2016,03,29,13,09,15.30
2016,03,29,13,10,15.40
2016,03,29,13,11,15.40
2016,03,29,13,12,15.40
2016,03,29,13,13,15.50
2016,03,29,13,14,15.50
2016,03,29,13,15,15.50
2016,03,29,13,16,15.50
2016,03,29,13,17,15.50
2016,03,29,13,18,15.60
2016,03,29,13,19,15.60
2016,03,29,13,20,15.60
2016,03,29,13,21,15.60
2016,03,29,13,22,15.60
2016,03,29,13,23,15.60
2016,03,29,13,24,15.60
2016,03,29,13,25,15.70
2016,03,29,13,26,15.60
2016,03,29,13,27,15.60
2016,03,29,13,28,15.60
2016,03,29,13,29,15.60
2016,03,29,13,30,15.70
2016,03,29,13,31,15.80
2016,03,29,13,32,15.90
2016,03,29,13,33,16.00
2016,03,29,13,34,16.00
2016,03,29,13,35,16.10
2016,03,29,13,36,16.10
2016,03,29,13,37,16.20
2016,03,29,13,38,16.20
2016,03,29,13,39,16.20
2016,03,29,13,40,16.10
2016,03,29,13,41,16.10
2016,03,29,13,42,16.10
2016,03,29,13,43,16.10
2016,03,29,13,44,16.10
2016,03,29,13,45,16.20
2016,03,29,13,46,16.20
2016,03,29,13,47,16.20
2016,03,29,13,48,16.30
2016,03,29,13,49,16.30
2016,03,29,13,50,16.30
2016,03,29,13,51,16.30
2016,03,29,13,52,16.30
2016,03,29,13,53,16.30
2016,03,29,13,54,16.30
2016,03,29,13,55,16.30
2016,03,29,13,56,16.30
2016,03,29,13,57,16.30
2016,03,29,13,58,16.30
2016,03,29,13,59,16.30
2016,03,29,14,00,16.30
2016,03,29,14,01,16.30
2016,03,29,14,02,16.20
2016,03,29,14,03,16.20
2016,03,29,14,04,16.20
2016,03,29,14,05,16.20
2016,03,29,14,06,16.30
2016,03,29,14,07,16.30
2016,03,29,14,08,16.40
2016,03,29,14,09,16.50
2016,03,29,14,10,16.60
2016,03,29,14,11,16.50
2016,03,29,14,12,16.50
2016,03,29,14,13,16.60
2016,03,29,14,14,16.60
2016,03,29,14,15,16.60
2016,03,29,14,16,16.60
2016,03,29,14,17,16.70
2016,03,29,14,18,16.70
2016,03,29,14,19,16.80
2016,03,29,14,20,16.80
2016,03,29,14,21,16.80
2016,03,29,14,22,16.70
2016,03,29,14,23,16.70
2016,03,29,14,24,16.70
2016,03,29,14,25,16.70
2016,03,29,14,26,16.70
2016,03,29,14,27,16.70
2016,03,29,14,28,16.70
2016,03,29,14,29,16.60
2016,03,29,14,30,16.60
2016,03,29,14,31,16.60
2016,03,29,14,32,16.60
2016,03,29,14,33,16.50
2016,03,29,14,34,16.50
2016,03,29,14,35,16.50
2016,03,29,14,36,16.50
2016,03,29,14,37,16.50
2016,03,29,14,38,16.50
2016,03,29,14,39,16.50
2016,03,29,14,40,16.40
2016,03,29,14,41,16.40
2016,03,29,14,42,16.40
2016,03,29,14,43,16.40
2016,03,29,14,44,16.40
2016,03,29,14,45,16.40
2016,03,29,14,46,16.40
2016,03,29,14,47,16.30
2016,03,29,14,48,16.30
2016,03,29,14,49,16.30
2016,03,29,14,50,16.30
2016,03,29,14,51,16.30
2016,03,29,14,52,16.30
2016,03,29,14,53,16.30
2016,03,29,14,54,16.30
2016,03,29,14,55,16.30
2016,03,29,14,56,16.30
2016,03,29,14,57,16.20
2016,03,29,14,58,16.20
2016,03,29,14,59,16.10
2016,03,29,15,00,16.10
2016,03,29,15,01,16.10
2016,03,29,15,02,16.10
2016,03,29,15,03,16.10
2016,03,29,15,04,16.20
2016,03,29,15,05,16.20
2016,03,29,15,06,16.30
2016,03,29,15,07,16.30
2016,03,29,15,08,16.30
2016,03,29,15,09,16.30
2016,03,29,15,10,16.30
2016,03,29,15,11,16.30
2016,03,29,15,12,16.30
2016,03,29,15,13,16.30
2016,03,29,15,14,16.30
2016,03,29,15,15,16.30
2016,03,29,15,16,16.30
2016,03,29,15,17,16.30
2016,03,29,15,18,16.30
2016,03,29,15,19,16.30
2016,03,29,15,20,16.30
2016,03,29,15,21,16.30
2016,03,29,15,22,16.30
2016,03,29,15,23,16.30
2016,03,29,15,24,16.30
2016,03,29,15,25,16.40
2016,03,29,15,26,16.30
2016,03,29,15,27,16.40
2016,03,29,15,28,16.40
2016,03,29,15,29,16.50
2016,03,29,15,30,16.50
2016,03,29,15,31,16.60
2016,03,29,15,32,16.60
2016,03,29,15,33,16.50
2016,03,29,15,34,16.50
2016,03,29,15,35,16.50
2016,03,29,15,36,16.50
2016,03,29,15,37,16.50
2016,03,29,15,38,16.50
2016,03,29,15,39,16.50
2016,03,29,15,40,16.50
2016,03,29,15,41,16.50
2016,03,29,15,42,16.50
2016,03,29,15,43,16.50
2016,03,29,15,44,16.50
2016,03,29,15,45,16.50
2016,03,29,15,46,16.50
2016,03,29,15,47,16.50
2016,03,29,15,48,16.50
2016,03,29,15,49,16.50
2016,03,29,15,50,16.40
2016,03,29,15,51,16.40
2016,03,29,15,52,16.40
2016,03,29,15,53,16.40
2016,03,29,15,54,16.40
2016,03,29,15,55,16.30
2016,03,29,15,56,16.30
2016,03,29,15,57,16.30
2016,03,29,15,58,16.30
2016,03,29,15,59,16.30
2016,03,29,16,00,16.30
2016,03,29,16,01,16.40
2016,03,29,16,02,16.40
2016,03,29,16,03,16.40
2016,03,29,16,04,16.40
2016,03,29,16,05,16.50
2016,03,29,16,06,16.50
2016,03,29,16,07,16.60
2016,03,29,16,08,16.70
2016,03,29,16,09,16.80
2016,03,29,16,10,16.90
2016,03,29,16,11,16.90
2016,03,29,16,12,17.00
2016,03,29,16,13,17.00
2016,03,29,16,14,17.00
2016,03,29,16,15,17.00
2016,03,29,16,16,17.00
2016,03,29,16,17,17.00
2016,03,29,16,18,17.10
2016,03,29,16,19,17.10
2016,03,29,16,20,17.00
2016,03,29,16,21,17.00
2016,03,29,16,22,17.00
2016,03,29,16,23,17.00
2016,03,29,16,24,17.10
2016,03,29,16,25,17.10
2016,03,29,16,26,17.20
2016,03,29,16,27,17.30
2016,03,29,16,28,17.30
2016,03,29,16,29,17.30
2016,03,29,16,30,17.30
2016,03,29,16,31,17.30
2016,03,29,16,32,17.20
2016,03,29,16,33,17.20
2016,03,29,16,34,17.30
2016,03,29,16,35,17.30
2016,03,29,16,36,17.40
2016,03,29,16,37,17.40
2016,03,29,16,38,17.50
2016,03,29,16,39,17.50
2016,03,29,16,40,17.50
2016,03,29,16,41,17.60
2016,03,29,16,42,17.60
2016,03,29,16,43,17.60
2016,03,29,16,44,17.70
2016,03,29,16,45,17.70
2016,03,29,16,46,17.70
2016,03,29,16,47,17.70
2016,03,29,16,48,17.70
2016,03,29,16,49,17.70
2016,03,29,16,50,17.60
2016,03,29,16,51,17.70
2016,03,29,16,52,17.60
2016,03,29,16,53,17.60
2016,03,29,16,54,17.60
2016,03,29,16,55,17.50
2016,03,29,16,56,17.50
2016,03,29,16,57,17.50
2016,03,29,16,58,17.40
2016,03,29,16,59,17.40
2016,03,29,17,00,17.40
2016,03,29,17,01,17.40
2016,03,29,17,02,17.40
2016,03,29,17,03,17.40
2016,03,29,17,04,17.40
2016,03,29,17,05,17.40
2016,03,29,17,06,17.50
2016,03,29,17,07,17.60
2016,03,29,17,08,17.70
2016,03,29,17,09,17.80
2016,03,29,17,10,17.80
2016,03,29,17,11,17.90
2016,03,29,17,12,17.90
2016,03,29,17,13,17.90
2016,03,29,17,14,17.90
2016,03,29,17,15,17.90
2016,03,29,17,16,18.00
2016,03,29,17,17,18.00
2016,03,29,17,18,18.00
2016,03,29,17,19,17.80
2016,03,29,17,20,17.70
2016,03,29,17,21,17.60
2016,03,29,17,22,17.50
2016,03,29,17,23,17.40
2016,03,29,17,24,17.20
2016,03,29,17,25,17.10
2016,03,29,17,26,17.00
2016,03,29,17,27,16.90
2016,03,29,17,28,16.80
2016,03,29,17,29,16.70
2016,03,29,17,30,16.70
2016,03,29,17,31,16.70
2016,03,29,17,32,16.70
2016,03,29,17,33,16.70
2016,03,29,17,34,16.80
2016,03,29,17,35,16.80
2016,03,29,17,36,16.90
2016,03,29,17,37,16.90
2016,03,29,17,38,17.00
2016,03,29,17,39,17.00
2016,03,29,17,40,17.10
2016,03,29,17,41,17.10
2016,03,29,17,42,17.20